EW7114 Weather Reports


time (UTC)temp
F
wind
direction
speed
knots
gust
knots
rain 1hr
in
rain 24hr
in
rain mn
in
humidity
%
barometer
mb
20260831212523 72 312 3.5 7.8 0.00 0.00 0.00 51 1006.1
20260831212022 73 319 3.5 7.8 0.00 0.00 0.00 51 1006.1
20260831211521 73 281 3.5 8.7 0.00 0.00 0.00 52 1006.0
20260831211020 74 258 4.3 15.6 0.00 0.00 0.00 52 1006.0
20260831210517 76 286 11.3 15.6 0.00 0.00 0.00 50 1005.9
20260831210016 78 105 0.0 8.7 0.00 0.00 0.00 45 1006.0
20260831205514 80 360 4.3 11.3 0.00 0.00 0.00 44 1005.9
20260831205013 80 98 5.2 11.3 0.00 0.00 0.00 41 1005.7
20260831204511 80 119 5.2 11.3 0.00 0.00 0.00 40 1005.7
20260831204013 80 117 3.5 11.3 0.00 0.00 0.00 42 1005.7
20260831203509 80 138 5.2 10.4 0.00 0.00 0.00 42 1005.6
20260831203006 81 154 7.8 13.0 0.00 0.00 0.00 41 1005.7
20260831202505 81 99 7.8 13.9 0.00 0.00 0.00 41 1005.9
20260831202004 81 118 9.6 13.9 0.00 0.00 0.00 40 1005.9
20260831201507 81 139 5.2 9.6 0.00 0.00 0.00 40 1006.0
20260831201002 81 130 6.1 10.4 0.00 0.00 0.00 42 1006.0
20260831200600 81 130 3.5 13.0 0.00 0.00 0.00 42 1006.0
20260831200139 80 169 6.1 13.0 0.00 0.00 0.00 42 1006.1
20260831195557 81 110 3.5 11.3 0.00 0.00 0.00 40 1006.2
20260831195054 81 74 7.0 11.3 0.00 0.00 0.00 41 1006.3
20260831194559 81 149 7.0 13.9 0.00 0.00 0.00 41 1006.5
20260831194052 81 117 7.8 13.9 0.00 0.00 0.00 41 1006.6
20260831193550 81 101 7.0 11.3 0.00 0.00 0.00 40 1006.8
20260831193049 82 141 7.8 12.2 0.00 0.00 0.00 41 1006.9
20260831192549 82 147 8.7 12.2 0.00 0.00 0.00 42 1007.0
20260831192045 81 165 5.2 13.0 0.00 0.00 0.00 44 1007.0
20260831191546 80 181 7.8 11.3 0.00 0.00 0.00 45 1007.2
20260831191043 80 174 5.2 11.3 0.00 0.00 0.00 45 1007.1
20260831190541 80 144 7.0 11.3 0.00 0.00 0.00 47 1007.3
20260831190042 80 147 6.1 10.4 0.00 0.00 0.00 48 1007.4
20260831185538 79 156 7.0 10.4 0.00 0.00 0.00 48 1007.5
20260831185036 79 172 6.1 12.2 0.00 0.00 0.00 48 1007.6
20260831184535 78 172 6.1 10.4 0.00 0.00 0.00 49 1007.8
20260831184033 78 137 7.0 10.4 0.00 0.00 0.00 49 1008.0
20260831183533 78 175 5.2 12.2 0.00 0.00 0.00 49 1008.1
20260831183031 78 181 7.0 12.2 0.00 0.00 0.00 48 1008.3
20260831182530 78 145 6.1 9.6 0.00 0.00 0.00 49 1008.3
20260831182028 77 178 6.1 10.4 0.00 0.00 0.00 49 1008.5
20260831181530 77 145 5.2 11.3 0.00 0.00 0.00 50 1008.6
20260831181025 77 180 8.7 13.0 0.00 0.00 0.00 49 1008.8
20260831180524 77 145 7.0 14.8 0.00 0.00 0.00 49 1008.9
20260831180022 76 168 7.8 14.8 0.00 0.00 0.00 50 1009.0
20260831175520 76 168 7.8 12.2 0.00 0.00 0.00 50 1009.2
20260831175019 75 174 7.8 13.0 0.00 0.00 0.00 50 1009.3
20260831174517 75 195 8.7 13.9 0.00 0.00 0.00 51 1009.3
20260831174017 75 165 8.7 14.8 0.00 0.00 0.00 51 1009.4
20260831173515 74 140 8.7 14.8 0.00 0.00 0.00 51 1009.5
20260831173013 74 150 8.7 16.5 0.00 0.00 0.00 50 1009.5
20260831172511 74 138 8.7 16.5 0.00 0.00 0.00 50 1009.6
20260831172011 74 150 9.6 14.8 0.00 0.00 0.00 50 1009.7
20260831171509 74 149 7.0 11.3 0.00 0.00 0.00 49 1009.7
20260831171008 73 136 7.8 10.4 0.00 0.00 0.00 49 1009.9
20260831170507 73 172 7.8 14.8 0.00 0.00 0.00 47 1010.0
20260831170008 73 172 9.6 14.8 0.00 0.00 0.00 48 1010.0
20260831165503 73 164 7.8 13.0 0.00 0.00 0.00 47 1010.1
20260831165001 72 180 7.0 12.2 0.00 0.00 0.00 45 1010.1
20260831164601 71 147 7.8 12.2 0.00 0.00 0.00 43 1010.2
20260831164059 72 132 8.7 12.2 0.00 0.00 0.00 41 1010.2
20260831163600 72 139 7.8 9.6 0.00 0.00 0.00 33 1010.3
20260831163056 71 137 7.0 9.6 0.00 0.00 0.00 14 1010.3
20260831162555 70 172 6.1 10.4 0.00 0.00 0.00 1 1010.3
20260831162055 69 155 6.1 10.4 0.00 0.00 0.00 1 1010.3
20260831161552 68 131 6.1 10.4 0.00 0.00 0.00 1 1010.4
20260831161050 67 139 4.3 7.0 0.00 0.00 0.00 1 1010.2
20260831160549 67 157 5.2 8.7 0.00 0.00 0.00 1 1010.3
20260831160047 66 146 6.1 9.6 0.00 0.00 0.00 1 1010.5
20260831155546 65 179 4.3 8.7 0.00 0.00 0.00 1 1010.4
20260831155044 62 197 4.3 7.0 0.00 0.00 0.00 1 1010.5
20260831154545 60 189 0.9 3.5 0.00 0.00 0.00 1 1010.5
20260831154046 60 56 0.0 0.0 0.00 0.00 0.00 1 1010.5
20260831153541 59 56 0.0 0.0 0.00 0.00 0.00 1 1010.6
20260831153039 59 56 0.0 0.0 0.00 0.00 0.00 1 1010.6
20260831152538 59 56 0.0 0.0 0.00 0.00 0.00 1 1010.7
20260831152035 58 56 0.0 0.0 0.00 0.00 0.00 1 1010.6
20260831151534 57 56 0.0 0.0 0.00 0.00 0.00 1 1010.6
20260831151032 57 56 0.0 1.7 0.00 0.00 0.00 1 1010.7
20260831150531 56 56 0.0 4.3 0.00 0.00 0.00 1 1010.7
20260831150029 56 56 0.0 4.3 0.00 0.00 0.00 1 1010.7
20260831145527 55 66 0.0 3.5 0.00 0.00 0.00 1 1010.8
20260831145026 55 47 0.9 3.5 0.00 0.00 0.00 1 1010.8
20260831144525 55 95 0.9 5.2 0.00 0.00 0.00 1 1010.7
20260831144025 54 95 0.9 5.2 0.00 0.00 0.00 1 1010.7
20260831143523 54 110 2.6 5.2 0.00 0.00 0.00 1 1010.7
20260831143022 54 114 0.9 3.5 0.00 0.00 0.00 1 1010.7
20260831142520 53 126 0.0 3.5 0.00 0.00 0.00 1 1010.7
20260831142019 53 184 0.0 2.6 0.00 0.00 0.00 1 1010.7
20260831141517 52 184 0.0 2.6 0.00 0.00 0.00 1 1010.6
20260831141015 51 184 0.0 0.9 0.00 0.00 0.00 1 1010.6
20260831140516 51 284 0.0 0.0 0.00 0.00 0.00 1 1010.6
20260831140029 50 284 0.0 0.0 0.00 0.00 0.00 1 1010.6
20260831135510 50 284 0.0 1.7 0.00 0.01 0.00 1 1010.4
20260831135009 50 284 0.0 1.7 0.00 0.01 0.00 1 1010.4
20260831134508 49 284 0.0 0.0 0.00 0.01 0.00 1 1010.4
20260831134007 49 284 0.0 0.9 0.00 0.01 0.00 1 1010.3
20260831133504 48 284 0.0 3.5 0.00 0.01 0.00 1 1010.2
20260831133003 48 284 0.9 3.5 0.00 0.01 0.00 1 1010.2
20260831132502 47 284 0.0 2.6 0.00 0.01 0.00 1 1010.2
20260831132002 47 284 0.0 0.0 0.00 0.01 0.00 1 1010.1
20260831131602 48 284 0.0 0.0 0.00 0.01 0.00 1 1010.1
20260831131058 49 284 0.0 0.0 0.00 0.01 0.00 1 1010.1
20260831130557 48 284 0.0 0.0 0.00 0.01 0.00 1 1010.1
20260831130056 48 284 0.0 0.0 0.00 0.01 0.00 1 1009.9
20260831125554 49 284 0.0 0.0 0.00 0.01 0.00 1 1009.8
20260831125052 49 284 0.0 0.0 0.00 0.01 0.00 1 1009.8
20260831124550 49 284 0.0 0.0 0.00 0.01 0.00 1 1009.7
20260831124048 48 284 0.0 0.0 0.00 0.01 0.00 1 1009.6
20260831123547 48 284 0.0 0.0 0.00 0.01 0.00 1 1009.6
20260831123045 48 284 0.0 2.6 0.00 0.01 0.00 1 1009.5
20260831122545 48 284 0.0 2.6 0.00 0.01 0.00 1 1009.7
20260831122046 49 319 0.0 0.0 0.00 0.01 0.00 1 1009.6
20260831121546 50 333 0.0 1.7 0.00 0.01 0.00 1 1009.7
20260831121041 50 333 0.9 1.7 0.00 0.01 0.00 1 1009.8
20260831120539 51 30 0.0 2.6 0.00 0.01 0.00 1 1009.8
20260831120038 51 30 0.0 4.3 0.00 0.01 0.00 1 1009.8
20260831115536 51 8 2.6 4.3 0.00 0.01 0.00 1 1009.9
20260831115034 51 86 0.0 1.7 0.00 0.01 0.00 1 1009.8
20260831114533 50 204 0.0 1.7 0.00 0.01 0.00 1 1009.9
20260831114031 50 204 0.0 1.7 0.00 0.01 0.00 1 1010.0
20260831113530 49 204 0.0 3.5 0.00 0.01 0.00 1 1010.0
20260831113029 48 204 0.0 4.3 0.00 0.01 0.00 1 1010.1
20260831112527 48 204 1.7 5.2 0.00 0.01 0.00 1 1010.0
20260831112025 48 204 3.5 5.2 0.00 0.01 0.00 1 1009.9
20260831111524 48 192 4.3 5.2 0.00 0.01 0.00 1 1009.9
20260831111022 47 172 2.6 3.5 0.00 0.01 0.00 1 1010.0
20260831110524 48 245 1.7 2.6 0.00 0.01 0.00 1 1009.9
20260831110020 50 245 0.0 0.0 0.00 0.01 0.00 1 1009.9
20260831105522 51 245 0.0 0.0 0.00 0.01 0.00 1 1009.8
20260831105017 51 245 0.0 0.0 0.00 0.01 0.00 1 1009.7
20260831104519 51 245 0.0 0.0 0.00 0.01 0.00 1 1009.7
20260831104014 51 245 0.0 0.0 0.00 0.01 0.00 1 1009.7
20260831103512 52 245 0.0 0.0 0.00 0.01 0.00 1 1009.8
20260831103010 52 245 0.0 0.0 0.00 0.01 0.00 1 1009.7
20260831102509 52 245 0.0 0.0 0.00 0.01 0.00 1 1009.8
20260831102008 52 245 0.0 0.0 0.00 0.01 0.00 1 1009.8
20260831101512 52 245 0.0 0.0 0.00 0.01 0.00 1 1009.7
20260831101005 52 245 0.0 2.6 0.00 0.01 0.00 1 1009.6
20260831100506 51 245 0.0 3.5 0.00 0.01 0.00 1 1009.6
20260831100002 51 245 0.0 2.6 0.00 0.01 0.00 1 1009.5
20260831095501 52 245 0.0 0.0 0.00 0.01 0.00 1 1009.4
20260831095100 52 245 0.0 0.0 0.00 0.01 0.00 1 1009.4
20260831094558 53 245 0.0 0.0 0.00 0.01 0.00 1 1009.4
20260831094057 52 245 0.0 0.0 0.00 0.01 0.00 1 1009.4
20260831093558 52 245 0.0 0.0 0.00 0.01 0.00 1 1009.3
20260831093057 52 245 0.0 0.0 0.00 0.01 0.00 1 1009.2
20260831092551 51 245 0.0 0.0 0.00 0.01 0.00 1 1009.2
20260831092052 50 245 0.0 0.0 0.00 0.01 0.00 1 1009.2
20260831091548 49 245 0.0 1.7 0.00 0.01 0.00 1 1009.3
20260831091050 49 245 0.0 3.5 0.00 0.01 0.00 1 1009.1
20260831090545 50 245 1.7 3.5 0.00 0.01 0.00 1 1009.2
20260831090056 53 245 0.0 0.0 0.00 0.01 0.00 1 1009.1
20260831085543 53 245 0.0 0.0 0.00 0.01 0.00 1 1009.1
20260831085041 53 245 0.0 0.0 0.00 0.01 0.00 1 1009.1
20260831084547 53 245 0.0 0.0 0.00 0.01 0.00 1 1009.2
20260831084037 52 245 0.0 0.0 0.00 0.01 0.00 1 1009.2
20260831083536 52 245 0.0 0.0 0.00 0.01 0.00 1 1009.2
20260831083035 52 245 0.0 0.0 0.00 0.01 0.00 1 1009.3
20260831082533 52 245 0.0 0.0 0.00 0.01 0.00 1 1009.3
20260831082031 52 245 0.0 0.9 0.00 0.01 0.00 1 1009.3
20260831081530 52 245 0.0 0.9 0.00 0.01 0.00 1 1009.4
20260831081029 55 245 0.0 0.0 0.00 0.01 0.00 1 1009.5
20260831080508 56 245 0.0 0.0 0.00 0.01 0.00 1 1009.4
20260831080032 56 245 0.0 0.0 0.00 0.01 0.00 1 1009.5
20260831075524 56 245 0.0 0.0 0.00 0.02 0.00 1 1009.5
20260831075022 56 245 0.0 0.0 0.00 0.02 0.00 1 1009.5
20260831074525 55 245 0.0 0.0 0.00 0.02 0.00 1 1009.5
20260831074022 55 245 0.0 0.0 0.00 0.02 0.00 1 1009.6
20260831073522 54 245 0.0 0.0 0.00 0.02 0.00 1 1009.6
20260831073017 53 245 0.0 2.6 0.00 0.02 0.00 1 1009.6
20260831072516 52 245 0.0 3.5 0.00 0.02 0.00 1 1009.6
20260831072014 52 245 2.6 3.5 0.00 0.02 0.00 1 1009.5
20260831071513 53 285 0.0 0.0 0.00 0.02 0.00 1 1009.6
20260831071011 54 284 0.0 0.0 0.00 0.02 0.00 1 1009.6
20260831070511 54 285 0.0 0.0 0.00 0.02 0.00 1 1009.6
20260831070009 54 284 0.0 0.0 0.00 0.02 0.00 1 1009.6
20260831065510 54 284 0.0 0.0 0.00 0.02 0.00 1 1009.6
20260831065005 54 285 0.0 2.6 0.00 0.02 0.00 1 1009.6
20260831064504 54 285 0.9 2.6 0.00 0.02 0.00 1 1009.6
20260831064002 55 285 0.0 2.6 0.00 0.02 0.00 1 1009.4
20260831063501 56 150 0.0 0.0 0.00 0.02 0.00 1 1009.4
20260831063059 56 150 0.0 0.0 0.00 0.02 0.00 1 1009.3
20260831062558 56 150 0.0 0.0 0.00 0.02 0.00 1 1009.3
20260831062057 56 150 0.0 0.0 0.00 0.02 0.00 1 1009.3
20260831061605 55 150 0.0 0.0 0.00 0.02 0.00 1 1009.3
20260831061054 56 150 0.0 0.0 0.00 0.02 0.00 1 1009.4
20260831060553 56 150 0.0 2.6 0.00 0.02 0.00 1 1009.4
20260831060058 56 150 1.7 4.3 0.00 0.02 0.00 1 1009.3
20260831055549 56 150 3.5 4.3 0.00 0.02 0.02 1 1009.3
20260831055048 56 150 0.0 2.6 0.00 0.02 0.02 1 1009.2
20260831054548 57 150 1.7 3.5 0.00 0.02 0.02 1 1009.2
20260831054046 57 150 0.9 6.1 0.00 0.02 0.02 1 1009.3
20260831053545 57 150 4.3 7.0 0.00 0.02 0.02 1 1009.3
20260831053058 57 153 3.5 7.8 0.00 0.02 0.02 1 1009.2
20260831052542 57 137 5.2 7.8 0.00 0.02 0.02 1 1009.4
20260831052044 57 182 2.6 4.3 0.00 0.02 0.02 1 1009.1
20260831051543 56 182 0.0 0.9 0.00 0.02 0.02 1 1009.1
20260831051037 56 182 0.0 0.0 0.00 0.02 0.02 1 1009.1
20260831050536 56 182 0.0 2.6 0.00 0.02 0.02 1 1009.0
20260831050042 56 182 0.0 4.3 0.00 0.02 0.02 1 1008.9
20260831045535 57 182 2.6 4.3 0.00 0.08 0.02 1 1008.9
20260831045032 58 182 2.6 4.3 0.00 0.08 0.02 1 1008.7
20260831044530 60 182 2.6 4.3 0.00 0.08 0.02 1 1008.7
20260831044028 60 182 0.0 0.0 0.00 0.08 0.02 1 1008.7
20260831043527 61 182 0.0 0.9 0.00 0.08 0.02 1 1008.6
20260831043026 61 182 0.0 2.6 0.00 0.08 0.02 1 1008.7
20260831042526 61 182 0.0 2.6 0.00 0.08 0.02 1 1008.7
20260831042023 62 182 0.0 3.5 0.00 0.08 0.02 1 1008.5
20260831041522 62 182 0.9 3.5 0.00 0.08 0.02 1 1008.6
20260831041022 63 182 0.0 0.0 0.00 0.08 0.02 1 1008.4
20260831040518 63 182 0.0 0.0 0.00 0.08 0.02 1 1008.4
20260831040018 63 182 0.0 3.5 0.00 0.08 0.02 1 1008.3
20260831035516 63 182 1.7 3.5 0.00 0.11 0.02 1 1008.4
20260831035014 63 182 2.6 3.5 0.00 0.11 0.02 1 1008.3
20260831034514 63 182 1.7 3.5 0.00 0.11 0.02 1 1008.2
20260831034014 64 182 0.0 3.5 0.00 0.11 0.02 1 1008.2
20260831033514 63 182 0.0 3.5 0.00 0.11 0.02 1 1008.3
20260831033024 63 182 0.0 0.9 0.00 0.11 0.02 1 1008.2
20260831032514 63 182 0.0 0.0 0.00 0.11 0.02 1 1008.1
20260831032013 63 182 0.0 4.3 0.00 0.11 0.02 1 1008.0
20260831031515 63 182 1.7 8.7 0.00 0.11 0.02 1 1008.0
20260831031013 63 147 6.1 8.7 0.00 0.11 0.02 1 1007.9
20260831030511 63 288 0.0 1.7 0.00 0.11 0.02 1 1007.7
20260831030008 63 288 0.0 4.3 0.00 0.11 0.02 1 1007.5
20260831025508 64 288 2.6 4.3 0.00 0.11 0.02 1 1007.5
20260831025007 64 288 0.0 3.5 0.00 0.11 0.02 1 1007.3
20260831024507 64 288 0.0 2.6 0.00 0.11 0.02 1 1007.2
20260831024006 64 288 0.0 2.6 0.00 0.11 0.02 1 1007.1
20260831023504 65 288 1.7 3.5 0.00 0.11 0.02 1 1006.9
20260831023002 65 288 2.6 4.3 0.00 0.11 0.02 1 1006.8
20260831022502 65 288 2.6 4.3 0.00 0.11 0.02 3 1006.7
20260831022059 66 288 1.7 3.5 0.00 0.11 0.02 9 1006.7
20260831021559 66 303 2.6 5.2 0.00 0.11 0.02 19 1006.6
20260831021057 67 303 2.6 7.0 0.00 0.11 0.02 27 1006.4
20260831020556 68 303 5.2 7.0 0.00 0.11 0.02 35 1006.3
20260831020108 69 293 4.3 7.0 0.00 0.11 0.02 43 1006.2
20260831015552 70 304 3.5 7.0 0.00 0.12 0.02 46 1006.2
20260831015050 70 329 3.5 7.0 0.00 0.12 0.02 48 1006.1
20260831014548 71 313 3.5 8.7 0.00 0.12 0.02 50 1006.1
20260831014048 71 325 4.3 10.4 0.00 0.12 0.02 51 1006.1
20260831013546 72 305 6.1 9.6 0.00 0.12 0.02 51 1006.1
20260831013044 73 336 6.1 10.4 0.00 0.12 0.02 52 1006.1
20260831012543 73 321 6.1 10.4 0.00 0.12 0.02 52 1006.1
20260831012042 73 345 6.1 10.4 0.00 0.12 0.02 52 1006.2
20260831011544 74 6 5.2 11.3 0.00 0.12 0.02 52 1006.2
20260831011038 74 345 6.1 11.3 0.00 0.12 0.02 52 1006.2
20260831010538 74 355 7.0 11.3 0.00 0.12 0.02 52 1006.2
20260831010036 74 317 7.0 12.2 0.00 0.12 0.02 52 1006.3
20260831005534 75 334 8.7 13.0 0.00 0.23 0.02 52 1006.3
20260831005032 75 328 8.7 13.0 0.00 0.23 0.02 52 1006.2
20260831004531 75 355 9.6 13.0 0.00 0.23 0.02 52 1006.2
20260831004029 75 350 7.8 12.2 0.00 0.23 0.02 51 1006.2
20260831003529 75 328 6.1 13.0 0.00 0.23 0.02 52 1006.1
20260831003033 75 355 8.7 13.9 0.00 0.23 0.02 52 1006.1
20260831002524 76 335 7.8 13.9 0.00 0.23 0.02 52 1006.0
20260831002022 76 311 9.6 13.9 0.00 0.23 0.02 51 1006.1
20260831001521 76 336 7.8 13.0 0.00 0.23 0.02 52 1006.1
20260831001025 76 359 9.6 13.0 0.00 0.23 0.02 51 1006.1
20260831000518 77 328 8.7 12.2 0.00 0.23 0.02 51 1006.2
20260831000020 77 319 7.8 12.2 0.00 0.23 0.02 50 1006.1
20260830235516 77 345 7.0 12.2 0.00 0.23 0.02 49 1006.2
20260830235014 77 350 8.7 12.2 0.00 0.23 0.02 49 1006.3
20260830234531 77 302 7.8 14.8 0.00 0.23 0.02 50 1006.3
20260830234010 77 313 9.6 14.8 0.00 0.23 0.02 49 1006.3
20260830233509 77 321 5.2 12.2 0.00 0.23 0.02 50 1006.3
20260830233008 77 350 8.7 13.0 0.00 0.23 0.02 51 1006.3
20260830232506 77 337 9.6 13.0 0.00 0.23 0.02 51 1006.3
20260830232005 76 14 6.1 13.0 0.00 0.23 0.02 52 1006.3
20260830231507 75 13 8.7 13.0 0.00 0.23 0.02 52 1006.1
20260830231002 75 355 8.7 13.0 0.00 0.23 0.02 52 1006.2
20260830230600 76 14 7.8 13.0 0.00 0.23 0.02 51 1006.3
20260830230059 77 350 7.0 11.3 0.00 0.23 0.02 51 1006.4
20260830225558 78 315 7.8 14.8 0.00 0.24 0.02 51 1006.4
20260830225056 78 308 8.7 14.8 0.00 0.24 0.02 50 1006.5
20260830224555 78 322 9.6 14.8 0.00 0.24 0.02 51 1006.4
20260830224053 78 338 7.8 13.0 0.00 0.24 0.02 50 1006.4
20260830223552 77 355 6.1 13.0 0.00 0.24 0.02 51 1006.5
20260830223050 77 340 7.8 11.3 0.00 0.24 0.02 51 1006.5
20260830222551 77 318 6.1 10.4 0.00 0.24 0.02 51 1006.6
20260830222047 77 330 6.1 10.4 0.00 0.24 0.02 51 1006.7
20260830221548 77 307 6.1 12.2 0.00 0.24 0.02 50 1006.8
20260830221044 78 327 7.0 12.2 0.00 0.24 0.02 51 1006.8
20260830220543 77 285 5.2 12.2 0.00 0.24 0.02 50 1006.8
20260830220047 77 279 7.8 12.2 0.00 0.24 0.02 50 1006.7
20260830215540 77 318 7.0 14.8 0.00 0.26 0.02 50 1006.7
20260830215041 77 317 9.6 14.8 0.00 0.26 0.02 51 1006.8
20260830214537 77 309 7.0 13.0 0.00 0.26 0.02 51 1006.7
20260830214035 76 305 8.7 13.9 0.00 0.26 0.02 51 1007.0
20260830213536 76 355 7.0 13.9 0.00 0.26 0.02 50 1007.0
20260830213036 77 350 7.0 12.2 0.00 0.26 0.02 50 1007.0